GLENN Weather Reports


Display with metric or nautical units.
time (UTC)temp
F
wind
direction
speed
MPH
gust
MPH
rain 1hr
in
rain 24hr
in
rain mn
in
humidity
%
barometer
mb
20260906193027 68 313 5.0 9.0 0.00 0.00 0.00 54 1015.8
20260906191530 68 332 4.0 9.0 0.00 0.00 0.00 55 1016.3
20260906190015 68 5 3.0 8.0 0.00 0.00 0.00 56 1016.5
20260906184514 67 323 4.0 8.0 0.00 0.00 0.00 55 1016.8
20260906183024 66 329 3.0 7.0 0.00 0.00 0.00 57 1017.1
20260906181527 66 227 2.0 8.0 0.00 0.00 0.00 58 1017.4
20260906180010 65 41 0.0 8.0 0.00 0.00 0.00 58 1017.7
20260906174513 64 123 2.0 4.0 0.00 0.00 0.00 58 1017.9
20260906173025 64 251 3.0 6.0 0.00 0.00 0.00 60 1018.3
20260906171528 63 261 4.0 8.0 0.00 0.00 0.00 60 1018.4
20260906170029 63 225 4.0 9.0 0.00 0.00 0.00 61 1018.7
20260906164513 62 244 2.0 7.0 0.00 0.00 0.00 60 1019.0
20260906163005 61 201 3.0 8.0 0.00 0.00 0.00 62 1019.3
20260906161505 61 168 3.0 7.0 0.00 0.00 0.00 62 1019.3
20260906160006 59 202 3.0 7.0 0.00 0.00 0.00 65 1019.5
20260906154508 59 216 2.0 10.0 0.00 0.00 0.00 66 1019.6
20260906153018 57 163 4.0 7.0 0.00 0.00 0.00 68 1020.0
20260906151504 56 149 3.0 7.0 0.00 0.00 0.00 68 1020.2
20260906150008 57 200 3.0 6.0 0.00 0.00 0.00 69 1020.3
20260906144515 56 162 3.0 4.0 0.00 0.00 0.00 71 1020.3
20260906143014 55 159 3.0 7.0 0.00 0.00 0.00 71 1020.4
20260906141520 54 168 4.0 8.0 0.00 0.00 0.00 74 1020.4
20260906140005 52 138 6.0 9.0 0.00 0.00 0.00 78 1020.5
20260906134507 52 138 6.0 10.0 0.00 0.00 0.00 79 1020.4
20260906133022 51 140 7.0 10.0 0.00 0.00 0.00 81 1020.4
20260906131517 50 141 10.0 12.0 0.00 0.00 0.00 82 1020.4
20260906130033 50 159 9.0 14.0 0.00 0.00 0.00 83 1020.4
20260906124503 49 162 7.0 10.0 0.00 0.00 0.00 84 1020.2
20260906123011 49 166 4.0 6.0 0.00 0.00 0.00 83 1019.9
20260906121514 50 121 3.0 4.0 0.00 0.00 0.00 82 1019.9
20260906120017 50 119 1.0 2.0 0.00 0.00 0.00 80 1019.7
20260906114528 50 33 0.0 0.0 0.00 0.00 0.00 80 1019.2
20260906113011 50 18 0.0 2.0 0.00 0.00 0.00 79 1018.8
20260906111510 51 62 1.0 3.0 0.00 0.00 0.00 76 1018.6
20260906110016 51 81 1.0 3.0 0.00 0.00 0.00 76 1018.1
20260906104537 51 80 1.0 3.0 0.00 0.00 0.00 74 1017.4
20260906103041 51 40 1.0 3.0 0.00 0.00 0.00 75 1017.4
20260906101509 52 98 3.0 4.0 0.00 0.00 0.00 72 1017.2
20260906100024 55 234 2.0 3.0 0.00 0.00 0.00 64 1016.8
20260906094519 54 107 2.0 4.0 0.00 0.00 0.00 66 1016.8
20260906093035 56 214 0.0 2.0 0.00 0.00 0.00 63 1016.9
20260906091535 55 109 0.0 3.0 0.00 0.00 0.00 64 1017.3
20260906090013 55 271 1.0 4.0 0.00 0.00 0.00 64 1017.4
20260906084517 56 91 1.0 4.0 0.00 0.00 0.00 63 1017.5
20260906083023 57 311 0.0 2.0 0.00 0.00 0.00 60 1017.7
20260906081525 57 287 0.0 3.0 0.00 0.00 0.00 60 1017.6
20260906080031 56 84 2.0 4.0 0.00 0.00 0.00 64 1017.9
20260906074513 56 273 1.0 4.0 0.00 0.00 0.00 63 1018.1
20260906073004 57 122 2.0 3.0 0.00 0.00 0.00 60 1018.0
20260906071505 58 134 2.0 4.0 0.00 0.00 0.00 58 1018.1
20260906070018 59 136 1.0 3.0 0.00 0.00 0.00 55 1018.0
20260906064510 60 136 1.0 2.0 0.00 0.00 0.00 53 1018.0
20260906063019 61 290 1.0 6.0 0.00 0.00 0.00 51 1018.0
20260906061509 62 344 1.0 6.0 0.00 0.00 0.00 47 1017.9
20260906060006 68 270 2.0 15.0 0.00 0.00 0.00 38 1017.9
20260906054509 69 107 14.0 24.0 0.00 0.00 0.00 37 1017.6
20260906053014 69 114 13.0 23.0 0.00 0.00 0.00 36 1017.6
20260906051530 70 94 11.0 24.0 0.00 0.00 0.00 36 1017.7
20260906050004 70 107 12.0 21.0 0.00 0.00 0.00 35 1017.7
20260906044508 71 97 17.0 25.0 0.00 0.00 0.00 33 1017.7
20260906043013 71 107 10.0 29.0 0.00 0.00 0.00 34 1017.6
20260906041519 71 90 16.0 26.0 0.00 0.00 0.00 33 1017.6
20260906040038 71 97 15.0 30.0 0.00 0.00 0.00 33 1017.3
20260906034507 72 99 19.0 26.0 0.00 0.00 0.00 32 1017.3
20260906033011 71 84 17.0 28.0 0.00 0.00 0.00 33 1017.4
20260906031547 72 94 19.0 28.0 0.00 0.00 0.00 32 1017.1
20260906030024 72 90 17.0 27.0 0.00 0.00 0.00 32 1016.8
20260906024550 72 90 17.0 26.0 0.00 0.00 0.00 31 1016.6
20260906023010 72 88 19.0 34.0 0.00 0.00 0.00 32 1016.6
20260906021514 71 102 9.0 18.0 0.00 0.00 0.00 32 1016.6
20260906020017 71 42 6.0 15.0 0.00 0.00 0.00 33 1016.8
20260906014525 71 48 8.0 12.0 0.00 0.00 0.00 34 1016.8
20260906013005 72 319 0.0 11.0 0.00 0.00 0.00 42 1017.1
20260906011513 74 59 2.0 13.0 0.00 0.00 0.00 32 1016.9
20260906010045 75 337 3.0 12.0 0.00 0.00 0.00 32 1016.9
20260906004524 75 105 6.0 9.0 0.00 0.00 0.00 32 1016.9
20260906003030 75 194 3.0 7.0 0.00 0.00 0.00 39 1016.6
20260906001509 77 352 4.0 9.0 0.00 0.00 0.00 34 1016.8
20260906000019 76 350 2.0 11.0 0.00 0.00 0.00 37 1017.0
20260905234521 76 299 2.0 5.0 0.00 0.00 0.00 39 1017.0
20260905233027 75 284 2.0 6.0 0.00 0.00 0.00 38 1017.1
20260905231530 75 340 2.0 7.0 0.00 0.00 0.00 39 1017.2
20260905230028 75 317 2.0 8.0 0.00 0.00 0.00 42 1017.2
20260905224520 74 43 1.0 6.0 0.00 0.00 0.00 42 1017.4
20260905223002 74 293 2.0 7.0 0.00 0.00 0.00 42 1017.4
20260905221508 74 259 2.0 18.0 0.00 0.00 0.00 42 1017.6
20260905220012 73 281 5.0 9.0 0.00 0.00 0.00 45 1017.7
20260905214516 73 286 3.0 7.0 0.00 0.00 0.00 44 1017.9
20260905213004 72 267 3.0 7.0 0.00 0.00 0.00 45 1018.0
20260905211508 72 352 3.0 8.0 0.00 0.00 0.00 44 1018.2
20260905210010 71 242 4.0 8.0 0.00 0.00 0.00 46 1018.3
20260905204511 71 103 2.0 4.0 0.00 0.00 0.00 45 1018.4
20260905203019 70 316 2.0 8.0 0.00 0.00 0.00 49 1018.8
20260905201505 69 341 3.0 11.0 0.00 0.00 0.00 48 1018.9
20260905200009 69 304 2.0 7.0 0.00 0.00 0.00 48 1019.2
20260905194512 68 9 4.0 10.0 0.00 0.00 0.00 49 1019.2